Location: Lombard
(41.8800°N, 88.0080°W)
Time: 13:45:39
(UTC-06:00)

Tiros 1 - Pass Details

Date: 01 February 2023
Orbit: 626 x 659 km, 48.4° (Epoch: 30 November)

Event Time Altitude Azimuth Distance (km) Brightness Sun altitude
Rises 01:53:36 0° 253° (WSW) 2,903 - -56.2°
Reaches altitude 10° 01:55:55 10° 256° (WSW) 2,001 - -55.8°
Maximum altitude 02:00:29 62° 338° (NNW) 713 - -55.1°
Drops below altitude 10° 02:05:07 10° 60° (ENE) 2,029 - -54.4°
Sets 02:07:29 0° 63° (ENE) 2,947 - -54.1°
